Temperature
6 7 7 6 6 6 6 6 6 7 8 8 8 8 8 7 7 7 6 6 5 5 5 5 5 5 5 5 5 5 5 5 5 4 4 4 4 4 4 4 4 4 3 3
4 6 6 6 6 6 6 6 6 7 7 8 8 8 7 7 6 6 6 5 5 5 5 5 5 5 4 5 5 5 4 4 4 4 4 4 4 4 4 4 3 3 3 3
3 5 5 4 5 6 5 6 6 6 6 6 6 6 6 6 6 5 5 5 4 4 4 4 4 4 4 4 4 4 4 4 4 4 4 4 4 4 3 3 3 3 3 2
2 3 2 5 7 6 6 6 6 6 6 5 5 6 6 5 5 4 4 4 4 4 4 4 4 4 4 4 4 4 4 4 3 3 3 3 3 3 3 3 3 2 2 2
2 2 3 5 5 5 5 4 5 5 5 5 5 5 5 5 4 4 4 4 3 3 3 4 4 4 4 4 3 3 3 3 3 3 3 3 3 3 3 3 2 2 2 2
2 2 3 5 5 6 5 4 4 4 4 4 4 2 3 4 4 3 3 3 3 3 3 3 3 3 3 3 3 3 3 3 3 3 3 3 3 2 2 2 2 1 1 1
1 2 3 4 4 5 3 3 4 4 4 3 3 3 3 3 3 3 3 3 3 3 3 3 3 3 3 3 3 3 3 3 3 3 2 2 2 2 2 1 1 1 1 1
1 1 2 3 3 3 3 3 3 3 3 3 2 2 2 2 2 2 2 2 2 2 2 2 2 3 2 2 2 2 2 2 2 2 2 2 2 1 1 1 1 0 0 0
1 2 3 3 3 3 3 2 2 2 2 2 2 1 1 1 1 1 1 1 1 1 1 2 2 2 2 2 2 2 2 2 2 2 1 1 1 1 1 0 0 -0 -0 -0
1 1 2 2 2 2 2 1 1 1 1 1 1 1 1 1 1 1 1 1 1 1 1 1 1 1 1 1 1 1 1 1 1 1 1 1 1 0 0 -0 -0 -0 -1 -1
-0 0 1 1 1 1 1 1 0 0 0 -0 0 -0 -0 -0 0 0 0 0 0 0 0 0 0 1 1 1 1 1 1 1 1 1 0 0 0 -0 -1 -1 -1 -1 -1 -1
-1 -0 -0 -0 -0 -0 -1 -1 -1 -1 -1 -1 -1 -1 -1 -0 -0 -0 -0 -0 -0 -0 -0 -0 -0 0 0 0 0 0 0 0 -0 -0 -0 -0 -1 -1 -1 -1 -1 -1 -1 -1
-1 -1 -1 -1 -1 -1 -2 -2 -2 -2 -2 -2 -1 -1 -1 -1 -1 -1 -1 -1 -1 -1 -1 -1 -1 -0 -0 -0 -0 -0 -0 -0 -1 -1 -1 -1 -2 -2 -2 -2 -2 -2 -2 -2
-2 -2 -2 -2 -3 -2 -2 -2 -2 -2 -2 -2 -2 -2 -2 -2 -2 -1 -2 -2 -2 -2 -2 -2 -1 -1 -1 -1 -1 -1 -1 -1 -1 -2 -2 -2 -2 -2 -2 -2 -2 -2 -2 -2
-3 -3 -3 -3 -3 -3 -3 -3 -3 -3 -3 -3 -3 -3 -2 -2 -2 -2 -2 -2 -2 -2 -2 -2 -2 -2 -2 -2 -2 -2 -2 -2 -2 -2 -3 -3 -3 -3 -3 -3 -3 -3 -3 -3
-4 -4 -4 -4 -4 -4 -4 -4 -4 -4 -4 -4 -3 -3 -3 -3 -3 -3 -3 -3 -3 -3 -3 -3 -3 -2 -2 -2 -2 -2 -3 -3 -3 -3 -3 -3 -4 -3 -4 -4 -4 -4 -4 -3
-5 -5 -5 -5 -5 -5 -5 -5 -5 -5 -4 -4 -4 -4 -4 -4 -4 -4 -4 -4 -3 -3 -3 -3 -3 -3 -3 -3 -3 -3 -3 -3 -4 -4 -4 -4 -4 -4 -4 -4 -4 -4 -4 -4
-5 -5 -6 -6 -6 -6 -6 -6 -6 -5 -5 -5 -5 -5 -5 -5 -5 -4 -4 -4 -4 -4 -4 -4 -4 -4 -4 -4 -4 -4 -4 -4 -4 -4 -4 -5 -5 -5 -5 -5 -5 -5 -5 -5
-6 -6 -6 -6 -6 -7 -7 -6 -6 -6 -6 -5 -5 -5 -5 -5 -5 -5 -5 -5 -5 -5 -5 -5 -5 -4 -4 -4 -4 -5 -5 -5 -5 -5 -5 -5 -5 -5 -5 -5 -5 -5 -5 -6
-7 -7 -7 -7 -7 -7 -7 -7 -7 -6 -6 -6 -6 -6 -6 -6 -6 -6 -6 -6 -6 -6 -6 -5 -5 -5 -5 -5 -5 -5 -5 -5 -5 -6 -6 -6 -6 -6 -6 -6 -6 -6 -6 -6
-7 -7 -7 -8 -8 -7 -7 -7 -7 -7 -7 -7 -7 -7 -7 -7 -7 -6 -6 -6 -7 -6 -6 -6 -6 -6 -6 -6 -6 -6 -6 -6 -6 -6 -6 -6 -6 -6 -6 -6 -6 -6 -7 -7
-8 -8 -8 -8 -8 -8 -8 -8 -8 -7 -7 -7 -7 -7 -7 -7 -7 -7 -7 -7 -7 -7 -7 -6 -6 -6 -6 -6 -6 -6 -6 -6 -6 -6 -7 -7 -7 -7 -7 -7 -7 -7 -7 -7
-8 -8 -8 -8 -8 -8 -8 -8 -8 -8 -8 -8 -8 -8 -8 -8 -8 -8 -8 -8 -8 -7 -7 -7 -7 -7 -7 -7 -7 -7 -7 -7 -7 -7 -7 -7 -7 -7 -7 -8 -8 -8 -8 -7
-9 -9 -9 -9 -8 -8 -8 -8 -8 -8 -8 -8 -8 -8 -8 -8 -8 -8 -8 -8 -8 -8 -8 -8 -7 -7 -7 -7 -7 -7 -7 -7 -7 -7 -8 -8 -8 -8 -8 -8 -8 -8 -8 -8
-9 -9 -9 -9 -9 -9 -9 -9 -9 -9 -9 -9 -9 -9 -9 -9 -9 -9 -9 -8 -8 -8 -8 -8 -8 -8 -8 -8 -8 -8 -8 -8 -8 -8 -8 -8 -8 -8 -8 -8 -8 -8 -8 -8
-9 -9 -9 -9 -10 -10 -10 -9 -9 -9 -9 -9 -9 -9 -9 -9 -9 -9 -9 -9 -9 -9 -9 -8 -8 -8 -8 -8 -8 -8 -8 -8 -8 -8 -8 -8 -8 -8 -8 -8 -8 -8 -8 -9
-10 -10 -10 -10 -10 -10 -10 -10 -10 -10 -10 -10 -10 -9 -9 -9 -9 -9 -9 -9 -9 -9 -9 -9 -9 -9 -9 -9 -9 -9 -9 -9 -9 -9 -9 -9 -9 -9 -9 -9 -9 -9 -9 -9
Wind_Speed
11 10 8 9 9 9 11 10 9 9 10 10 6 5 3 2 2 2 2 2 2 2 2 1 1 1 1 2 2 2 2 2 2 1 1 2 3 3 3 3 3 3 3 3
9 10 9 11 11 11 12 12 13 13 13 8 6 4 3 3 3 3 3 3 3 2 2 1 2 2 2 2 2 2 2 2 2 2 2 2 3 2 3 3 3 3 3 3
6 6 7 9 7 9 7 6 6 10 9 6 6 5 4 4 3 4 3 3 3 3 2 2 3 2 2 2 2 2 2 2 2 2 2 2 3 3 3 3 3 3 3 3
5 4 8 5 1 3 6 6 5 5 5 5 6 6 3 2 2 4 4 4 3 3 3 2 2 2 2 2 2 2 2 2 2 2 2 2 3 3 3 2 2 2 3 3
4 6 9 5 3 3 5 5 3 5 6 6 7 5 3 3 4 4 5 4 4 4 3 2 2 2 2 2 2 2 2 2 2 2 2 2 3 3 2 2 2 2 2 2
6 6 7 3 3 3 1 4 4 4 5 6 5 5 6 6 6 6 6 4 4 3 2 2 2 2 3 3 3 3 3 2 2 2 2 3 3 3 2 2 2 2 2 2
9 8 7 3 4 3 1 4 6 5 5 4 4 6 7 6 6 6 6 4 3 2 2 2 2 3 3 3 3 3 2 2 2 2 2 2 2 2 2 2 2 2 2 2
5 7 7 3 2 1 4 6 7 6 5 6 7 7 7 7 6 6 6 5 3 2 2 1 2 3 3 3 2 2 2 2 2 2 1 1 2 2 2 3 2 2 2 2
5 6 5 3 4 5 6 7 8 8 7 6 8 8 8 8 7 6 6 4 3 2 2 2 1 2 3 2 2 3 3 3 2 2 1 2 2 2 2 2 2 2 2 2
6 7 7 7 7 8 8 9 9 8 8 7 8 9 8 8 7 6 5 4 2 2 3 2 1 2 2 2 3 3 3 2 2 2 2 1 1 1 2 2 2 2 2 2
9 9 8 7 8 9 10 9 10 10 9 8 8 9 9 8 7 6 5 3 3 3 3 3 2 1 2 3 3 3 3 2 2 2 2 2 1 1 1 1 2 2 2 2
9 8 8 10 9 10 11 11 10 11 10 9 8 8 8 7 5 4 4 3 3 3 3 2 1 1 1 2 3 4 3 2 2 2 1 1 1 2 3 1 1 1 1 1
7 8 8 10 10 9 10 11 10 10 9 9 8 7 7 5 4 3 3 3 3 3 2 1 1 1 1 2 3 3 3 2 2 2 1 1 1 1 1 3 3 2 2 1
6 6 8 8 9 10 9 10 10 9 8 8 7 6 5 5 4 3 3 3 2 1 1 1 1 1 1 2 3 3 2 2 2 1 1 1 1 1 1 1 1 2 2 2
7 7 7 9 9 9 9 9 9 8 7 7 6 5 4 4 4 4 3 1 0 0 1 1 1 1 2 3 3 3 2 1 1 1 1 1 1 1 0 0 0 1 1 1
9 8 8 8 8 9 8 8 8 8 7 7 6 5 4 3 3 3 2 1 1 0 0 1 1 1 2 3 3 2 1 2 1 1 1 1 1 1 0 0 0 1 1 1
7 8 8 9 10 9 8 8 8 8 7 6 5 4 3 2 2 2 2 2 2 1 1 1 2 2 2 2 2 1 1 1 1 1 0 0 0 1 1 1 1 1 1 2
6 7 8 8 8 8 8 8 7 7 6 5 4 3 3 2 2 2 2 3 3 4 3 3 3 3 2 2 2 1 1 1 1 1 0 0 0 0 0 0 1 1 1 1
7 7 8 8 7 7 7 7 7 6 5 4 4 4 3 3 3 3 3 3 3 3 3 3 4 3 3 2 2 1 1 1 1 1 1 0 1 0 0 0 1 1 1 1
8 7 7 7 7 7 6 6 5 5 5 4 4 4 4 4 4 3 4 3 3 2 3 3 4 3 3 2 3 1 2 1 1 1 1 1 1 1 1 1 1 1 1 1
7 7 7 7 7 7 6 6 5 5 5 5 4 4 4 4 4 4 3 3 4 4 4 5 3 3 2 2 3 2 2 1 1 1 1 1 1 1 1 1 1 1 1 1
6 6 7 7 7 7 7 6 5 6 6 6 5 4 4 4 5 4 4 3 3 5 4 3 3 3 4 4 2 2 2 2 1 1 1 1 1 1 1 1 1 1 1 1
6 6 6 6 6 6 6 6 6 6 6 6 5 5 5 4 4 4 4 4 4 6 5 3 4 6 6 4 3 2 2 2 2 1 1 1 1 1 1 1 1 1 1 1
5 5 5 5 5 5 7 7 7 6 5 5 5 5 5 4 4 4 3 5 7 7 4 5 7 7 7 4 3 3 2 2 2 1 1 1 1 1 1 1 1 2 1 1
5 5 5 5 6 5 5 6 6 6 6 5 6 6 5 4 3 3 4 4 6 7 5 6 8 8 5 3 3 3 2 2 1 1 1 1 1 1 2 2 2 2 2 2
4 4 4 4 4 4 4 4 5 5 5 5 5 5 4 4 4 4 4 5 6 7 5 4 4 5 4 3 3 3 2 3 3 2 2 2 2 2 2 2 2 2 2 2
4 4 4 4 5 5 4 4 4 5 5 5 5 5 5 5 4 5 5 5 5 4 4 4 4 4 4 3 3 3 3 3 2 2 2 2 2 2 2 2 2 2 2 2
Wind_Direction
275 284 278 271 265 246 238 239 248 268 274 286 295 294 299 320 313 308 322 331 314 292 278 258 252 249 221 197 187 176 171 181 195 193 183 170 164 168 167 172 184 178 179 186
279 272 270 270 264 254 248 248 254 268 276 295 311 326 322 325 321 308 304 306 305 296 280 253 237 237 221 198 184 167 171 180 171 162 155 165 169 168 169 174 179 175 185 191
270 278 286 263 245 239 241 240 242 257 271 306 319 314 306 307 310 309 306 313 311 300 286 257 230 219 218 195 164 167 178 171 163 164 166 172 172 168 176 184 183 185 191 194
269 283 249 246 269 230 239 244 249 272 300 311 312 306 301 304 335 324 319 313 302 295 288 280 245 214 189 164 166 175 181 174 171 173 171 171 170 176 185 181 179 185 188 186
247 257 270 264 276 268 245 262 285 291 305 312 326 328 324 356 344 317 306 301 300 286 278 272 241 198 164 166 170 172 186 187 182 171 166 170 181 185 187 178 177 180 179 181
239 253 256 283 321 319 275 262 322 317 314 326 342 313 293 323 327 320 316 310 306 296 288 255 221 170 165 175 178 196 202 194 182 173 175 182 186 179 167 163 176 174 175 188
237 247 259 295 341 17 221 281 334 331 320 315 293 276 294 310 313 314 313 311 309 298 283 255 188 159 176 183 198 203 182 161 163 173 181 173 158 151 148 153 162 174 188 206
230 239 252 339 21 272 295 330 336 329 320 309 302 300 306 306 304 309 312 310 313 306 295 277 173 164 182 197 191 155 146 150 158 160 162 142 139 140 147 156 168 183 198 216
236 246 297 333 309 317 331 323 321 315 309 306 301 297 300 302 301 299 299 296 295 286 288 277 200 176 185 186 153 147 145 153 152 141 137 138 146 150 148 150 168 195 200 214
280 279 302 309 317 323 323 315 314 312 309 302 295 293 293 294 295 294 289 283 281 270 264 262 235 197 178 166 157 151 149 150 147 142 132 112 110 135 146 162 177 193 205 212
276 287 302 296 313 317 316 317 316 312 307 300 295 293 289 287 286 285 281 274 264 252 251 245 221 192 171 157 146 146 147 147 144 137 134 113 85 90 146 203 200 206 214 211
272 291 294 299 311 315 312 311 308 304 302 301 290 287 289 286 285 282 281 273 261 253 243 243 209 193 177 151 143 143 145 142 142 140 127 117 98 47 33 26 6 358 313 244
285 302 301 302 309 314 311 310 309 305 301 302 299 289 283 286 290 287 283 273 259 248 236 215 180 166 133 125 133 142 149 150 148 142 139 139 136 124 47 14 14 357 342 326
316 318 306 309 310 313 313 312 310 308 307 304 300 297 294 293 295 294 286 276 269 247 207 177 152 120 95 100 105 111 119 135 138 144 145 152 156 160 159 152 2 345 337 328
328 319 305 307 309 314 318 318 317 314 315 315 310 304 300 296 299 304 302 297 358 127 146 133 122 90 89 100 98 98 97 100 101 102 103 117 122 119 100 121 250 304 340 345
318 318 317 315 314 317 319 320 318 315 316 316 314 314 317 323 328 330 337 40 90 65 63 107 108 81 93 96 89 86 89 98 86 101 107 118 131 143 146 201 266 280 288 297
327 323 323 319 318 317 317 316 316 317 315 315 319 330 347 358 357 360 15 35 49 36 36 62 59 53 65 83 94 98 93 100 101 101 134 166 175 189 197 212 249 281 288 291
319 314 313 310 310 313 317 322 323 323 322 321 335 349 355 358 356 4 20 34 44 35 28 35 48 47 49 55 68 82 89 81 77 100 101 119 127 160 182 211 245 280 292 302
337 333 330 328 326 322 322 325 328 335 343 353 360 3 4 6 10 19 30 38 42 30 20 40 39 48 50 45 45 73 86 85 59 52 47 72 36 35 331 281 284 287 296 306
345 345 344 342 341 337 333 334 339 347 351 357 7 16 17 11 14 29 37 34 22 21 32 37 38 41 41 41 34 63 77 77 65 48 35 37 39 24 354 333 330 324 325 320
344 345 347 348 346 347 349 351 354 355 357 6 16 14 15 18 24 31 35 25 17 24 31 30 31 27 27 29 28 46 57 59 54 46 33 22 16 4 351 343 332 327 327 327
341 344 347 350 355 355 357 3 10 10 14 19 24 26 28 24 23 27 30 22 12 17 22 25 25 22 22 24 34 47 52 51 44 34 28 12 358 342 334 337 328 327 326 327
341 344 348 354 359 359 4 11 15 17 19 19 19 20 23 22 21 25 16 11 15 19 21 22 21 22 24 28 36 40 43 42 38 28 12 353 341 336 324 315 312 315 313 313
349 355 358 0 7 16 15 10 12 15 17 20 21 23 27 29 25 24 20 9 13 18 24 19 22 25 28 33 34 32 30 27 24 18 7 357 351 343 318 298 295 295 294 298
353 358 4 7 10 9 5 4 8 13 19 23 25 26 25 24 22 11 12 12 11 18 20 15 19 23 25 24 25 22 14 3 354 354 351 336 320 309 299 294 290 289 286 281
358 359 2 7 6 2 2 4 8 8 11 14 16 18 17 17 18 12 11 12 14 14 15 10 10 16 16 14 13 9 5 357 359 359 344 325 312 304 298 299 298 289 282 277
359 3 7 12 12 10 8 9 10 6 5 7 5 5 8 11 13 13 13 12 12 13 11 10 10 9 9 10 8 5 3 -0 355 345 334 323 313 305 302 301 296 287 283 281
Height
1484 1480 1480 1479 1478 1477 1478 1477 1477 1468 1464 1460 1459 1459 1458 1458 1458 1457 1457 1457 1457 1456 1456 1456 1456 1456 1456 1456 1456 1456 1457 1457 1457 1458 1458 1459 1460 1461 1462 1463 1464 1465 1466 1467
1487 1479 1478 1476 1473 1472 1471 1470 1468 1465 1462 1458 1457 1457 1456 1456 1456 1456 1455 1455 1454 1454 1453 1453 1453 1453 1453 1453 1453 1453 1454 1454 1454 1455 1455 1456 1457 1458 1459 1460 1461 1462 1463 1464
1487 1479 1477 1477 1469 1467 1466 1464 1464 1464 1461 1458 1457 1456 1455 1455 1455 1454 1453 1453 1452 1451 1451 1450 1450 1450 1449 1450 1450 1451 1451 1451 1452 1452 1453 1453 1454 1455 1456 1457 1458 1459 1459 1460
1488 1484 1485 1467 1459 1458 1459 1458 1459 1458 1456 1456 1455 1454 1453 1453 1452 1452 1451 1450 1449 1448 1447 1447 1447 1447 1447 1447 1447 1447 1448 1448 1449 1449 1449 1450 1451 1451 1453 1453 1454 1455 1456 1457
1488 1483 1471 1461 1459 1458 1458 1458 1456 1456 1455 1454 1453 1451 1451 1450 1450 1449 1448 1447 1446 1445 1444 1443 1443 1443 1444 1444 1444 1444 1444 1445 1445 1446 1446 1447 1447 1448 1449 1450 1451 1452 1453 1454
1483 1480 1472 1461 1457 1453 1455 1458 1454 1453 1453 1453 1452 1454 1450 1448 1447 1445 1444 1443 1442 1441 1440 1440 1440 1440 1440 1440 1441 1441 1441 1442 1443 1443 1443 1444 1444 1445 1446 1447 1448 1449 1450 1451
1479 1476 1466 1459 1456 1454 1462 1460 1454 1452 1452 1452 1452 1451 1448 1446 1444 1442 1441 1440 1439 1438 1437 1436 1436 1437 1437 1437 1437 1438 1439 1439 1440 1441 1441 1441 1442 1442 1443 1444 1445 1446 1447 1448
1474 1473 1468 1458 1457 1460 1458 1454 1453 1451 1450 1450 1448 1446 1444 1443 1440 1439 1437 1436 1435 1434 1433 1433 1433 1433 1433 1434 1435 1435 1436 1436 1437 1438 1438 1439 1439 1440 1441 1442 1442 1443 1444 1444
1469 1465 1459 1457 1457 1456 1455 1453 1452 1450 1448 1447 1444 1442 1440 1439 1437 1435 1434 1433 1432 1431 1430 1430 1430 1430 1430 1431 1431 1432 1433 1433 1434 1435 1435 1436 1436 1437 1438 1439 1439 1440 1440 1441
1465 1459 1458 1456 1455 1453 1453 1451 1449 1447 1445 1443 1441 1438 1436 1435 1433 1431 1430 1429 1429 1428 1427 1427 1427 1427 1427 1428 1428 1429 1430 1430 1431 1432 1433 1433 1434 1435 1435 1436 1436 1437 1437 1438
1462 1458 1455 1453 1453 1451 1449 1447 1445 1443 1441 1439 1437 1434 1432 1430 1429 1427 1426 1426 1425 1424 1424 1424 1424 1424 1424 1425 1425 1426 1427 1428 1428 1429 1430 1431 1431 1432 1433 1434 1434 1435 1435 1435
1459 1457 1456 1452 1450 1449 1446 1443 1441 1438 1435 1433 1432 1429 1428 1426 1424 1423 1423 1422 1421 1421 1421 1421 1421 1421 1421 1422 1422 1423 1424 1425 1426 1427 1427 1428 1428 1429 1430 1432 1432 1433 1433 1433
1456 1453 1452 1449 1447 1445 1442 1439 1436 1434 1431 1428 1426 1425 1423 1422 1420 1419 1419 1418 1418 1417 1417 1417 1418 1418 1418 1419 1420 1420 1421 1422 1423 1424 1425 1425 1426 1426 1427 1428 1429 1430 1430 1430
1452 1450 1447 1445 1443 1441 1438 1435 1432 1429 1426 1424 1422 1420 1419 1418 1417 1416 1415 1415 1415 1414 1414 1414 1415 1415 1416 1417 1417 1418 1419 1420 1421 1421 1422 1423 1424 1424 1425 1425 1425 1426 1427 1427
1449 1447 1445 1441 1439 1436 1434 1431 1427 1424 1422 1420 1418 1417 1416 1414 1413 1413 1412 1412 1412 1412 1412 1412 1412 1413 1414 1415 1415 1416 1417 1417 1418 1419 1420 1421 1421 1422 1422 1423 1423 1423 1423 1424
1445 1443 1441 1438 1435 1432 1430 1427 1424 1421 1419 1417 1415 1414 1413 1412 1411 1410 1410 1410 1409 1409 1409 1410 1410 1411 1412 1413 1413 1414 1415 1416 1416 1417 1418 1418 1419 1419 1420 1420 1421 1421 1421 1421
1443 1439 1437 1434 1432 1429 1427 1424 1421 1419 1416 1414 1413 1412 1411 1410 1409 1408 1408 1408 1408 1408 1408 1408 1409 1409 1410 1411 1411 1412 1412 1413 1414 1414 1415 1416 1416 1416 1417 1417 1418 1418 1418 1418
1441 1438 1435 1432 1429 1426 1423 1421 1418 1416 1414 1412 1411 1410 1409 1408 1407 1407 1406 1406 1406 1406 1407 1407 1407 1407 1408 1409 1410 1410 1410 1411 1412 1412 1413 1413 1414 1414 1414 1415 1415 1415 1415 1415
1438 1435 1432 1430 1427 1424 1421 1418 1416 1414 1412 1410 1409 1408 1407 1407 1406 1405 1405 1405 1404 1404 1405 1405 1406 1406 1406 1407 1408 1408 1409 1409 1410 1410 1410 1411 1411 1412 1412 1412 1413 1413 1413 1413
1435 1433 1430 1427 1425 1422 1419 1417 1415 1413 1411 1410 1409 1407 1407 1406 1406 1405 1405 1404 1404 1404 1405 1405 1405 1405 1405 1406 1406 1407 1407 1407 1408 1408 1408 1409 1409 1409 1410 1410 1410 1410 1410 1410
1433 1431 1428 1426 1423 1421 1418 1416 1414 1412 1411 1410 1408 1407 1407 1406 1406 1405 1404 1404 1405 1405 1404 1405 1405 1405 1405 1405 1405 1405 1406 1406 1406 1406 1407 1407 1407 1407 1407 1407 1407 1408 1408 1408
1433 1430 1428 1425 1422 1420 1418 1416 1414 1412 1411 1409 1409 1408 1407 1406 1406 1405 1405 1405 1405 1405 1404 1404 1404 1404 1404 1404 1404 1404 1404 1404 1404 1405 1405 1405 1405 1405 1405 1405 1405 1405 1405 1405
1433 1430 1428 1425 1423 1421 1419 1417 1415 1413 1412 1410 1409 1408 1408 1407 1407 1406 1405 1406 1405 1405 1405 1404 1404 1404 1403 1403 1403 1403 1403 1403 1403 1403 1403 1403 1403 1403 1403 1403 1403 1403 1403 1402
1433 1430 1428 1426 1424 1422 1420 1418 1416 1415 1413 1412 1411 1410 1409 1408 1408 1408 1407 1407 1406 1406 1405 1405 1404 1403 1403 1403 1402 1402 1402 1402 1401 1401 1401 1401 1401 1401 1401 1401 1401 1401 1400 1400
1433 1431 1429 1427 1425 1423 1421 1420 1418 1416 1414 1413 1412 1411 1410 1410 1409 1409 1408 1408 1407 1406 1405 1405 1404 1403 1403 1402 1402 1401 1401 1400 1400 1399 1399 1399 1399 1399 1399 1399 1399 1399 1398 1398
1434 1432 1430 1428 1427 1425 1423 1421 1419 1417 1416 1414 1413 1412 1412 1411 1410 1410 1409 1408 1407 1407 1406 1405 1404 1403 1403 1402 1401 1400 1400 1399 1398 1398 1398 1397 1397 1397 1397 1397 1397 1397 1396 1396
1434 1433 1431 1429 1428 1426 1424 1422 1421 1419 1417 1416 1414 1414 1413 1412 1411 1410 1409 1409 1408 1407 1406 1405 1404 1403 1402 1401 1400 1399 1399 1398 1397 1397 1396 1396 1396 1396 1395 1395 1395 1395 1394 1394